DateTimeUTC,F1_A11,F1_S11,BsB_S11,BsG_S11,BsR_S11,BbsB_S11,BbsG_S11,BbsR_S11,BaB_A11,BaG_A11,BaR_A11,T_S11,U_S11,P_S11,T1_A11
2020-01-19T00:00:00Z,00000380,21000600,,,,,,,,,,22.4,00.0,0626.4,30.8
2020-01-19T00:01:00Z,00000380,21000600,,,,,,,,,,22.4,00.0,0626.4,30.8
2020-01-19T00:02:00Z,00000380,21000600,,,,,,,,,,22.4,00.0,0626.4,30.8
2020-01-19T00:03:00Z,00000380,61000600,,,,,,,,,,22.4,00.0,0626.4,30.8
2020-01-19T00:04:00Z,00000380,41000600,-000.58,0000.41,0000.17,0000.17,0000.22,-000.38,-000.09,-000.18,-000.14,22.2,00.0,0627.2,30.8
2020-01-19T00:05:00Z,00000380,01000600,0000.08,0000.55,-000.07,0000.61,-000.11,0000.00,0000.17,0000.20,-000.06,22.2,00.0,0627.3,30.8
2020-01-19T00:06:00Z,00000380,01000600,-000.36,0000.18,-000.08,-000.34,-000.07,-000.22,0000.05,0000.23,0000.30,22.2,00.0,0627.2,30.8
2020-01-19T00:07:00Z,00000380,01000600,0000.02,0000.21,-000.49,0000.41,0000.00,-000.09,0000.02,-000.01,-000.11,22.1,00.0,0627.2,30.9
2020-01-19T00:08:00Z,00000380,01000600,0000.05,0000.98,-000.34,0000.17,0000.47,-000.38,0000.09,0000.06,-000.05,22.1,00.0,0627.2,30.9
2020-01-19T00:09:00Z,00000380,01000600,-000.51,-000.50,0000.15,0000.75,0000.06,-000.00,0000.15,0000.07,0000.13,22.1,00.0,0627.2,30.8
2020-01-19T00:10:00Z,00000380,01000600,-001.29,0000.76,0000.16,-000.75,0000.08,0000.01,-000.05,0000.03,0000.01,22.1,00.0,0627.1,30.9
2020-01-19T00:11:00Z,00000380,01000600,0000.43,0000.09,0000.09,0000.66,-000.56,0000.02,0000.10,-000.00,0000.07,22.1,00.0,0627.1,30.9
2020-01-19T00:12:00Z,00000380,01000600,-000.15,0000.34,0000.00,0000.08,-000.01,-000.50,0000.06,0000.08,0000.11,22.1,00.0,0627.1,30.9
2020-01-19T00:13:00Z,00000380,01000600,-000.03,0000.41,0000.26,0000.88,-000.05,-000.07,0000.02,0000.18,-000.10,22.1,00.0,0627.0,30.9
2020-01-19T00:14:00Z,00000380,01000600,0000.26,0000.13,0000.00,0000.33,0000.14,0000.06,0000.03,-000.21,-000.02,22.1,00.0,0627.0,30.9
2020-01-19T00:15:00Z,00000380,01000600,-000.81,0000.37,0000.02,-000.17,-000.42,-000.14,0000.01,-000.01,-000.02,22.1,00.0,0627.0,30.8
2020-01-19T00:16:00Z,00000380,01000600,0000.81,0000.20,-000.25,0000.45,-000.14,-000.22,0000.36,0000.20,0000.22,22.1,00.0,0627.0,30.8
2020-01-19T00:17:00Z,00000380,01000600,0000.61,0001.04,0000.24,0001.05,-000.01,0000.43,-000.07,0000.13,0000.13,22.1,00.0,0627.0,30.8
2020-01-19T00:18:00Z,00000380,01000600,0000.37,0000.11,-000.02,0000.43,-000.09,0000.10,-000.14,0000.04,-000.11,22.1,00.0,0627.0,30.8
2020-01-19T00:19:00Z,00000380,01000600,0000.60,0000.02,-000.02,0000.22,-000.30,-000.10,0000.13,-000.13,-000.02,22.1,00.0,0627.0,30.8
2020-01-19T00:20:00Z,00000380,01000600,-000.40,0000.14,0000.31,0000.32,-000.04,-000.17,0000.03,0000.09,0000.12,22.1,00.0,0626.9,30.8
2020-01-19T00:21:00Z,00000380,01000600,-000.24,0000.13,-000.89,0000.30,0000.02,-000.50,0000.20,0000.38,-000.05,22.1,00.0,0626.9,30.8
2020-01-19T00:22:00Z,00000380,01000600,0001.05,0000.13,0000.00,-000.12,0000.42,-000.23,-000.01,-000.34,0000.05,22.1,00.0,0626.9,30.8
2020-01-19T00:23:00Z,00000380,01000600,0000.16,0000.39,-000.24,0000.35,0000.01,0000.24,-000.03,0000.19,0000.10,22.1,00.0,0626.9,30.9
2020-01-19T00:24:00Z,00000380,01000600,-000.24,-000.06,0000.21,0000.58,0000.13,-000.19,0000.15,0000.05,-000.05,22.1,00.0,0626.8,30.8
2020-01-19T00:25:00Z,00000380,01000600,0000.74,0000.49,-000.78,0000.14,-000.52,-000.86,-000.01,0000.10,0000.06,22.1,00.0,0626.8,30.9
2020-01-19T00:26:00Z,00000380,01000600,0000.48,0001.04,0000.22,0000.40,-000.36,-000.28,0000.14,-000.09,0000.11,22.1,00.0,0626.8,30.9
2020-01-19T00:27:00Z,00000380,01000600,-000.87,0000.50,-000.07,0000.21,-000.00,0000.17,-000.08,0000.09,-000.05,22.0,00.0,0626.7,30.8
2020-01-19T00:28:00Z,00000380,01000600,0000.42,0000.18,-000.14,0001.28,0000.13,-000.05,0000.11,-000.02,0000.03,22.1,00.0,0626.7,30.8
2020-01-19T00:29:00Z,00000380,01000600,-000.77,0000.59,0000.00,0000.22,-000.16,0000.02,-000.08,-000.14,-000.05,22.0,00.0,0626.7,30.8
2020-01-19T00:30:00Z,00000380,01000600,0000.12,0000.83,-000.15,0000.89,0000.06,-000.04,0000.08,-000.01,-000.03,22.0,00.0,0626.6,30.8
2020-01-19T00:31:00Z,00000380,01000600,-000.13,0000.74,-000.20,-000.51,-000.38,0000.04,0000.18,0000.20,0000.28,22.0,00.0,0626.6,30.8
2020-01-19T00:32:00Z,00000380,01000600,0001.04,0001.00,-000.08,0000.61,-000.04,0000.28,0000.21,0000.11,0000.09,22.0,00.0,0626.6,30.8
2020-01-19T00:33:00Z,00000380,01000600,-000.62,0000.48,0000.36,0001.11,0000.28,0000.00,0000.05,0000.18,0000.14,22.1,00.0,0626.6,30.8
2020-01-19T00:34:00Z,00000380,01000600,0001.01,-000.01,0000.15,-000.59,-000.17,-000.12,-000.11,-000.11,-000.23,22.1,00.0,0626.6,30.8
2020-01-19T00:35:00Z,00000380,01000600,0001.19,0000.64,0000.25,-000.82,0000.13,0000.12,-000.03,-000.07,0000.01,22.1,00.0,0626.6,30.8
2020-01-19T00:36:00Z,00000380,01000600,0001.32,0000.55,0000.35,0000.40,-000.11,0000.48,0000.04,0000.22,0000.11,22.1,00.0,0626.5,30.8
2020-01-19T00:37:00Z,00000380,01000600,-000.89,0000.89,0000.01,0000.53,0000.26,0000.14,0000.09,0000.20,-000.02,22.1,00.0,0626.5,30.8
2020-01-19T00:38:00Z,00000380,01000600,-000.45,0000.69,-000.02,0000.45,-000.14,0000.49,-000.07,-000.07,-000.04,22.1,00.0,0626.5,30.9
2020-01-19T00:39:00Z,00000380,01000600,-000.56,-000.09,0000.18,0000.23,0000.24,-000.33,0000.05,-000.29,-000.10,22.1,00.0,0626.4,30.9
2020-01-19T00:40:00Z,00000380,01000600,-000.77,0000.06,0000.47,0000.53,-000.44,0000.36,-000.01,0000.17,0000.14,22.1,00.0,0626.4,30.9
2020-01-19T00:41:00Z,00000380,01000600,-000.49,0000.38,0000.15,-000.35,0000.12,0000.16,-000.01,0000.05,-000.13,22.1,00.0,0626.4,30.9
2020-01-19T00:42:00Z,00000380,01000600,0000.41,0000.37,0000.03,0000.47,0000.10,-000.10,-000.00,-000.15,0000.01,22.1,00.0,0626.3,30.9
2020-01-19T00:43:00Z,00000380,01000600,0000.09,-000.34,-000.15,0000.53,0000.12,0000.17,0000.01,0000.11,0000.04,22.1,00.0,0626.3,30.8
2020-01-19T00:44:00Z,00000380,01000600,-000.92,0000.54,0000.32,-000.39,0000.01,0000.22,-000.16,-000.14,-000.13,22.1,00.0,0626.3,30.9
2020-01-19T00:45:00Z,00000380,01000600,-001.37,0000.19,0000.42,0000.45,-000.06,0000.33,0000.17,-000.05,0000.18,22.1,00.0,0626.2,30.8
2020-01-19T00:46:00Z,00000380,01000600,-000.58,0000.74,0000.31,-000.29,0000.12,0000.16,0000.06,0000.17,0000.12,22.0,00.0,0626.2,30.8
2020-01-19T00:47:00Z,00000380,01000600,0000.35,0000.25,-000.35,0001.09,-000.46,0000.19,0000.02,0000.04,0000.04,22.1,00.0,0626.2,30.8
2020-01-19T00:48:00Z,00000380,01000600,-000.21,0000.21,0000.03,-000.73,-000.06,-000.07,0000.25,0000.09,-000.01,22.1,00.0,0626.2,30.8
2020-01-19T00:49:00Z,00000380,01000600,0000.60,0000.71,-000.24,0000.26,0000.04,-000.08,-000.13,0000.02,-000.00,22.1,00.0,0626.2,30.8
2020-01-19T00:50:00Z,00000380,01000600,0000.62,0000.02,0000.09,0001.17,-000.34,0000.07,-000.08,-000.21,-000.20,22.1,00.0,0626.2,30.8
2020-01-19T00:51:00Z,00000380,01000600,0000.32,0000.11,0000.49,0000.15,0000.25,0000.32,0000.10,0000.30,0000.17,22.1,00.0,0626.1,30.8
2020-01-19T00:52:00Z,00000380,01000600,-001.00,0000.65,0000.19,-000.35,-000.13,-000.35,-000.01,-000.00,-000.06,22.1,00.0,0626.1,30.9
2020-01-19T00:53:00Z,00000380,01000600,-000.14,0000.53,-000.01,0000.05,-000.20,-000.16,-000.06,-000.01,0000.04,22.2,00.0,0626.1,30.9
2020-01-19T00:54:00Z,00000380,01000600,0001.18,-000.33,0000.43,0000.59,0000.22,0000.19,0000.13,0000.04,0000.03,22.1,00.0,0626.1,30.9
2020-01-19T00:55:00Z,00000380,01000600,0001.36,-000.75,-000.20,0000.50,0000.08,0000.13,-000.03,-000.05,0000.04,22.1,00.0,0626.1,30.9
2020-01-19T00:56:00Z,00000380,01000600,0001.10,0000.39,-000.26,0000.59,0000.17,0000.06,0000.01,0000.13,-000.00,22.1,00.0,0626.0,30.9
2020-01-19T00:57:00Z,00000380,41000600,,,,,,,,,,22.2,00.0,0626.1,30.9
2020-01-19T00:58:00Z,00000380,61000600,,,,,,,,,,22.3,00.0,0625.0,30.9
2020-01-19T00:59:00Z,00000380,21000600,,,,,,,,,,22.4,00.0,0625.0,30.8
2020-01-19T01:00:00Z,00000380,21000600,,,,,,,,,,22.4,00.0,0624.9,30.8
2020-01-19T01:01:00Z,00000380,21000600,,,,,,,,,,22.4,00.0,0624.9,30.8
2020-01-19T01:02:00Z,00000380,21000600,,,,,,,,,,22.4,00.0,0624.9,30.8
2020-01-19T01:03:00Z,00000380,61000600,,,,,,,,,,22.4,00.0,0624.9,30.8
2020-01-19T01:04:00Z,00000380,41000600,-000.21,-000.14,0000.57,0000.18,0000.08,0000.11,-000.04,0000.06,-000.12,22.3,00.0,0625.9,30.8
2020-01-19T01:05:00Z,00000380,01000600,0000.28,-000.11,-000.02,0000.60,0000.29,0000.26,0000.00,0000.09,0000.10,22.2,00.0,0625.9,30.8
2020-01-19T01:06:00Z,00000380,01000600,0000.03,0000.81,-000.33,0000.06,0000.36,0000.27,0000.10,0000.09,0000.13,22.2,00.0,0625.9,30.8
2020-01-19T01:07:00Z,00000380,01000600,0000.13,0000.15,-000.13,0000.93,0000.37,-000.21,0000.15,0000.19,0000.04,22.2,00.0,0625.9,30.8
2020-01-19T01:08:00Z,00000380,01000600,0000.31,0000.06,0000.27,0000.90,0000.30,0000.21,0000.11,-000.01,0000.06,22.2,00.0,0625.8,30.8
2020-01-19T01:09:00Z,00000380,01000600,0000.06,0000.60,-000.15,-000.09,-000.22,0000.17,-000.08,-000.04,-000.11,22.2,00.0,0625.8,30.9
2020-01-19T01:10:00Z,00000380,01000600,0001.10,0000.41,0001.18,0000.61,-000.03,0000.01,0000.10,0000.19,0000.11,22.2,00.0,0625.8,30.9
2020-01-19T01:11:00Z,00000380,01000600,-002.42,-000.58,0000.27,0000.01,-000.03,0000.36,0000.00,-000.04,0000.03,22.2,00.0,0625.7,30.9
2020-01-19T01:12:00Z,00000380,01000600,0000.79,-000.13,0000.06,0000.81,0000.51,0000.39,0000.13,-000.05,-000.02,22.2,00.0,0625.7,30.9
2020-01-19T01:13:00Z,00000380,01000600,0000.06,0000.37,-000.06,0001.55,0000.28,0000.34,0000.00,0000.01,0000.09,22.2,00.0,0625.7,30.9
2020-01-19T01:14:00Z,00000380,01000600,0000.37,0000.14,0000.47,-000.09,0000.35,0000.53,-000.09,-000.19,-000.11,22.2,00.0,0625.7,30.9
2020-01-19T01:15:00Z,00000380,01000600,0000.77,0000.32,0000.02,0001.11,-000.02,0000.58,0000.02,-000.03,-000.03,22.2,00.0,0625.7,30.8
2020-01-19T01:16:00Z,00000380,01000600,0001.00,-000.16,-000.12,0001.10,0000.16,-000.35,0000.08,0000.18,0000.25,22.2,00.0,0625.7,30.8
2020-01-19T01:17:00Z,00000380,01000600,-000.09,0000.13,0000.67,0000.49,-000.15,-000.55,0000.25,0000.26,0000.03,22.2,00.0,0625.7,30.8
2020-01-19T01:18:00Z,00000380,01000600,0000.21,-000.49,0000.50,0000.53,0000.37,-000.08,-000.07,0000.18,-000.06,22.2,00.0,0625.7,30.8
2020-01-19T01:19:00Z,00000380,01000600,-000.74,-000.31,-000.13,0000.15,0000.11,0000.05,-000.19,-000.36,-000.04,22.2,00.0,0625.7,30.8
2020-01-19T01:20:00Z,00000380,01000600,-000.99,0000.64,0000.45,0000.60,0000.24,-000.26,0000.21,0000.26,0000.14,22.2,00.0,0625.7,30.8
2020-01-19T01:21:00Z,00000380,01000600,0000.77,0000.22,0000.08,0000.84,0000.19,0000.51,0000.01,-000.00,0000.00,22.2,00.0,0625.6,30.8
2020-01-19T01:22:00Z,00000380,01000600,-001.39,0000.24,0000.69,0000.42,0000.06,-000.25,0000.05,0000.11,0000.05,22.2,00.0,0625.6,30.9
2020-01-19T01:23:00Z,00000380,01000600,0000.32,0000.20,0000.49,0000.45,0000.43,-000.09,0000.12,-000.03,0000.06,22.2,00.0,0625.6,30.8
2020-01-19T01:24:00Z,00000380,01000600,0001.07,-000.00,-000.14,0000.26,-000.07,-000.16,0000.03,0000.11,-000.00,22.2,00.0,0625.6,30.9
2020-01-19T01:25:00Z,00000380,01000600,0000.48,0000.16,0000.20,0000.71,0000.21,0000.38,-000.02,-000.03,0000.01,22.2,00.0,0625.6,30.9
2020-01-19T01:26:00Z,00000380,01000600,0000.58,0000.08,0000.52,0000.09,-000.08,0000.29,-000.04,0000.01,0000.10,22.2,00.0,0625.6,30.9
2020-01-19T01:27:00Z,00000380,01000600,-000.34,0000.39,-000.13,0000.37,0000.37,0000.40,0000.12,0000.03,-000.07,22.2,00.0,0625.5,30.9
2020-01-19T01:28:00Z,00000380,01000600,0000.02,-000.04,0000.34,0000.61,0000.23,-000.29,0000.12,0000.00,0000.01,22.2,00.0,0625.5,30.9
2020-01-19T01:29:00Z,00000380,01000600,0001.06,-000.04,-000.14,0000.57,-000.04,0000.28,-000.16,-000.08,0000.06,22.2,00.0,0625.5,30.8
2020-01-19T01:30:00Z,00000380,01000600,0000.04,0000.37,0000.07,0000.15,0000.25,-000.23,0000.02,0000.08,-000.01,22.2,00.0,0625.5,30.8
2020-01-19T01:31:00Z,00000380,01000600,0000.14,-000.06,-000.08,0000.62,-000.00,0000.14,0000.29,0000.11,0000.15,22.2,00.0,0625.6,30.8
2020-01-19T01:32:00Z,00000380,01000600,0000.59,0000.03,-000.10,-000.43,-000.20,-000.19,-000.05,0000.03,-000.04,22.2,00.0,0625.6,30.8
2020-01-19T01:33:00Z,00000380,01000600,0000.12,-000.13,0000.31,0001.23,-000.08,-000.16,-000.02,-000.09,-000.08,22.2,00.0,0625.6,30.8
2020-01-19T01:34:00Z,00000380,01000600,-000.21,-000.06,0000.37,0001.25,0000.24,-000.25,-000.30,-000.27,-000.21,22.2,00.0,0625.6,30.8
2020-01-19T01:35:00Z,00000380,01000600,0000.72,0000.44,0000.30,0000.81,0000.15,-000.05,0000.16,0000.25,0000.15,22.2,00.0,0625.6,30.8
2020-01-19T01:36:00Z,00000380,01000600,0000.83,0000.06,0000.19,0000.50,0000.27,0000.27,0000.05,0000.12,-000.04,22.2,00.0,0625.6,30.8
2020-01-19T01:37:00Z,00000380,01000600,-000.69,0000.46,0000.81,0000.24,0000.17,-000.04,0000.00,0000.08,-000.03,22.2,00.0,0625.5,30.8
2020-01-19T01:38:00Z,00000380,01000600,-000.66,0001.30,0000.03,0000.61,0000.20,0000.01,0000.09,-000.12,0000.22,22.2,00.0,0625.5,30.8
2020-01-19T01:39:00Z,00000380,01000600,0000.36,0000.63,0000.20,0000.18,-000.01,0000.26,0000.05,0000.07,0000.05,22.2,00.0,0625.5,30.8
2020-01-19T01:40:00Z,00000380,01000600,0000.98,0000.30,0000.99,0000.94,0000.12,0000.22,-000.01,0000.11,-000.12,22.2,00.0,0625.5,30.8
2020-01-19T01:41:00Z,00000380,01000600,-000.20,-000.15,0000.19,0000.80,0000.62,0000.18,-000.14,-000.17,-000.02,22.2,00.0,0625.5,30.8
2020-01-19T01:42:00Z,00000380,01000600,0001.67,0000.35,-000.20,-000.15,0000.19,0000.01,0000.07,-000.13,-000.02,22.2,00.0,0625.5,30.9
2020-01-19T01:43:00Z,00000380,01000600,0000.73,0000.06,-000.01,0000.21,0000.02,0000.09,-000.05,0000.14,0000.01,22.1,00.0,0625.5,30.9
2020-01-19T01:44:00Z,00000380,01000600,-000.05,0000.36,0000.44,0000.59,0000.19,-000.10,-000.03,-000.14,0000.07,22.2,00.0,0625.5,30.9
2020-01-19T01:45:00Z,00000380,01000600,-000.04,0000.54,0000.32,-001.17,0000.46,0000.41,0000.01,-000.07,-000.00,22.1,00.0,0625.5,30.8
2020-01-19T01:46:00Z,00000380,01000600,0000.04,-000.13,0000.05,-000.37,0000.07,-000.18,0000.19,0000.22,0000.22,22.1,00.0,0625.4,30.8
2020-01-19T01:47:00Z,00000380,01000600,0000.48,0000.11,0000.36,-000.29,0000.08,-000.12,0000.16,0000.22,-000.01,22.1,00.0,0625.5,30.8
2020-01-19T01:48:00Z,00000380,01000600,0001.07,0001.17,0000.10,0000.54,-000.44,-000.21,-000.04,0000.04,0000.06,22.2,00.0,0625.5,30.8
2020-01-19T01:49:00Z,00000380,01000600,0002.41,0000.69,-000.01,0000.94,0000.28,0000.19,0000.00,0000.00,-000.01,22.2,00.0,0625.5,30.8
2020-01-19T01:50:00Z,00000380,01000600,-000.77,-000.23,0000.32,-000.25,-000.25,0000.20,-000.01,0000.03,0000.02,22.2,00.0,0625.5,30.8
2020-01-19T01:51:00Z,00000380,01000600,0000.04,0000.28,-000.16,-000.19,0000.44,0000.04,-000.12,-000.32,-000.06,22.2,00.0,0625.5,30.8
2020-01-19T01:52:00Z,00000380,01000600,0000.86,-000.27,0000.23,0000.66,0000.46,0000.39,0000.16,0000.35,0000.13,22.2,00.0,0625.4,30.8
2020-01-19T01:53:00Z,00000380,01000600,0000.58,0000.08,0000.00,-000.16,0000.22,-000.18,0000.12,0000.06,-000.06,22.2,00.0,0625.4,30.9
2020-01-19T01:54:00Z,00000380,01000600,0000.71,-000.17,0000.03,0000.44,0000.36,-000.46,0000.06,0000.01,-000.05,22.2,00.0,0625.4,30.9
2020-01-19T01:55:00Z,00000380,01000600,0000.72,0000.38,0000.03,0000.10,0000.08,-000.08,0000.05,-000.03,0000.22,22.2,00.0,0625.3,30.9
2020-01-19T01:56:00Z,00000380,01000600,0000.82,0000.53,0000.53,0000.87,0000.32,0000.34,-000.11,0000.05,-000.10,22.2,00.0,0625.3,30.9
2020-01-19T01:57:00Z,00000380,41000600,,,,,,,,,,22.3,00.0,0625.3,30.9
2020-01-19T01:58:00Z,00000380,61000600,,,,,,,,,,22.4,00.0,0624.3,30.9
2020-01-19T01:59:00Z,00000380,21000600,,,,,,,,,,22.5,00.0,0624.3,30.9
2020-01-19T02:00:00Z,00000380,21000600,,,,,,,,,,22.5,00.0,0624.3,30.8
2020-01-19T02:01:00Z,00000380,21000600,,,,,,,,,,22.5,00.0,0624.2,30.8
2020-01-19T02:02:00Z,00000380,21000600,,,,,,,,,,22.5,00.0,0624.2,30.8
2020-01-19T02:03:00Z,00000380,61000600,,,,,,,,,,22.5,00.0,0624.2,30.8
2020-01-19T02:04:00Z,00000380,41000600,0000.33,-000.23,0000.98,-000.66,0000.19,0000.31,0000.25,0000.38,0000.04,22.3,00.0,0625.2,30.8
2020-01-19T02:05:00Z,00000380,01000600,0001.34,-000.16,0000.46,-000.02,-000.19,0000.13,-000.41,-000.27,-000.09,22.3,00.0,0625.3,30.8
2020-01-19T02:06:00Z,00000380,01000600,0001.20,0000.04,0000.01,0000.60,0000.01,0000.33,0000.37,0000.14,0000.06,22.3,00.0,0625.2,30.8
2020-01-19T02:07:00Z,00000380,01000600,0000.18,0000.33,0000.64,-000.14,0000.17,0000.15,-000.10,0000.09,-000.02,22.3,00.0,0625.2,30.9
2020-01-19T02:08:00Z,00000380,01000600,-000.18,-000.15,0000.22,0000.47,-000.04,0000.37,0000.01,-000.00,0000.21,22.3,00.0,0625.2,30.9
2020-01-19T02:09:00Z,00000380,01000600,-000.77,-000.13,0000.10,0000.47,0000.46,-000.33,0000.14,0000.18,0000.09,22.3,00.0,0625.1,30.9
2020-01-19T02:10:00Z,00000380,01000600,0000.58,-000.17,-000.18,0000.24,0000.00,-000.50,-000.05,-000.04,-000.08,22.3,00.0,0625.1,30.9
2020-01-19T02:11:00Z,00000380,01000600,0001.23,-000.15,0000.08,-000.29,0000.09,-000.44,-000.02,0000.06,-000.08,22.3,00.0,0625.1,30.9
2020-01-19T02:12:00Z,00000380,01000600,0000.56,-000.40,-000.11,-000.10,-000.08,-000.09,0000.04,0000.10,0000.11,22.3,00.0,0625.1,30.9
2020-01-19T02:13:00Z,00000380,01000600,0001.34,-000.75,0000.28,0000.43,0000.27,-000.07,0000.07,-000.01,-000.12,22.3,00.0,0625.1,30.9
2020-01-19T02:14:00Z,00000380,01000600,-000.32,-000.16,0000.54,-000.56,0000.16,-000.02,0000.04,-000.02,-000.04,22.3,00.0,0625.0,30.9
2020-01-19T02:15:00Z,00000380,01000600,0002.39,-000.55,0000.50,0000.35,0000.18,0000.10,0000.03,-000.15,0000.16,22.2,00.0,0625.0,30.8
2020-01-19T02:16:00Z,00000380,01000600,0000.36,0000.33,-000.01,0000.55,0000.30,0000.21,0000.04,-000.03,0000.10,22.3,00.0,0625.0,30.8
2020-01-19T02:17:00Z,00000380,01000600,0001.19,-000.43,0000.42,-000.05,0000.51,0000.25,0000.11,0000.28,-000.12,22.3,00.0,0625.0,30.8
2020-01-19T02:18:00Z,00000380,01000600,-000.82,0000.29,-000.16,0001.31,0000.38,-000.36,-000.01,0000.10,0000.24,22.3,00.0,0625.0,30.8
2020-01-19T02:19:00Z,00000380,01000600,0000.71,-000.05,0000.02,-000.27,0000.04,0000.10,0000.09,-000.11,-000.11,22.3,00.0,0625.1,30.8
2020-01-19T02:20:00Z,00000380,01000600,-000.70,0000.15,0000.13,-000.57,0000.06,-000.05,-000.07,-000.03,0000.00,22.3,00.0,0625.0,30.8
2020-01-19T02:21:00Z,00000380,01000600,0000.76,0000.23,0000.22,0000.09,0000.33,0000.19,0000.02,0000.22,0000.16,22.3,00.0,0625.0,30.9
2020-01-19T02:22:00Z,00000380,01000600,0001.01,0000.22,0000.04,0000.59,0000.39,-000.18,0000.06,0000.22,0000.19,22.3,00.0,0624.9,30.9
2020-01-19T02:23:00Z,00000380,01000600,0000.80,0000.34,0000.10,-000.07,0000.33,-000.45,0000.09,-000.08,-000.20,22.3,00.0,0624.9,30.9
2020-01-19T02:24:00Z,00000380,01000600,0000.72,0000.28,-000.13,0000.10,0000.46,0000.05,0000.07,-000.01,0000.07,22.3,00.0,0624.8,30.9
2020-01-19T02:25:00Z,00000380,01000600,-000.60,-000.81,0000.42,0000.23,0000.46,0000.25,0000.01,0000.15,-000.04,22.3,00.0,0624.8,30.9
2020-01-19T02:26:00Z,00000380,01000600,0001.05,-000.06,-000.10,0000.93,0000.06,0000.15,0000.17,0000.10,0000.18,22.3,00.0,0624.8,30.9
2020-01-19T02:27:00Z,00000380,01000600,0000.63,0000.31,-000.06,0001.11,0000.45,-000.31,0000.02,0000.05,-000.13,22.3,00.0,0624.7,30.9
2020-01-19T02:28:00Z,00000380,01000600,-000.56,-000.20,0000.06,0000.72,0000.47,-000.33,0000.08,-000.02,0000.05,22.3,00.0,0624.7,30.9
2020-01-19T02:29:00Z,00000380,01000600,0001.33,-000.08,0000.16,-000.07,0000.31,0000.05,-000.08,-000.15,-000.12,22.3,00.0,0624.7,30.9
2020-01-19T02:30:00Z,00000380,01000600,0000.38,0000.48,-000.10,0000.58,0000.21,-000.15,-000.10,-000.16,0000.18,22.2,00.0,0624.6,30.8
2020-01-19T02:31:00Z,00000380,01000600,0001.11,0000.30,0000.38,0000.96,0000.32,-000.11,0000.26,0000.21,0000.14,22.2,00.0,0624.6,30.8
2020-01-19T02:32:00Z,00000380,01000600,0000.61,0000.15,-000.30,0000.66,0000.21,-000.37,0000.09,0000.14,0000.17,22.2,00.0,0624.7,30.8
2020-01-19T02:33:00Z,00000380,01000600,0000.65,-000.10,0000.51,-000.30,0000.14,0000.11,-000.01,0000.18,-000.07,22.3,00.0,0624.7,30.8
2020-01-19T02:34:00Z,00000380,01000600,0001.56,-000.26,0000.39,0000.84,-000.20,0000.12,0000.00,-000.16,-000.08,22.3,00.0,0624.7,30.8
2020-01-19T02:35:00Z,00000380,01000600,0000.49,0000.08,0000.33,0000.19,0000.57,0000.01,0000.09,0000.23,0000.03,22.3,00.0,0624.6,30.8
2020-01-19T02:36:00Z,00000380,01000600,0000.75,-000.07,-000.26,0000.30,0000.13,-000.39,-000.11,-000.06,0000.05,22.3,00.0,0624.6,30.9
2020-01-19T02:37:00Z,00000380,01000600,0000.76,0000.27,0000.02,0000.18,0000.24,0000.35,0000.13,0000.26,0000.17,22.3,00.0,0624.6,30.9
2020-01-19T02:38:00Z,00000380,01000600,0000.26,0000.70,0000.33,-000.12,0000.28,0000.29,-000.04,-000.15,-000.13,22.3,00.0,0624.5,30.9
2020-01-19T02:39:00Z,00000380,01000600,0001.19,0000.44,-000.06,0000.58,0000.03,0000.12,0000.03,0000.00,-000.10,22.3,00.0,0624.5,30.9
2020-01-19T02:40:00Z,00000380,01000600,0000.75,0000.27,0000.08,0000.67,0000.60,0000.34,0000.07,-000.06,0000.02,22.3,00.0,0624.5,30.9
2020-01-19T02:41:00Z,00000380,01000600,-000.04,0000.17,0000.31,-000.76,0000.30,0000.10,-000.12,0000.10,0000.16,22.3,00.0,0624.4,30.9
2020-01-19T02:42:00Z,00000380,01000600,0001.11,0000.68,0000.43,-000.52,0000.00,-000.14,0000.20,0000.10,-000.04,22.3,00.0,0624.4,30.9
2020-01-19T02:43:00Z,00000380,01000600,0001.24,-000.02,0000.45,-000.03,0000.11,0000.22,0000.06,-000.00,0000.04,22.3,00.0,0624.4,30.9
2020-01-19T02:44:00Z,00000380,01000600,0000.44,0000.30,0000.14,-000.57,0000.25,0000.18,-000.22,-000.05,0000.01,22.3,00.0,0624.3,30.9
2020-01-19T02:45:00Z,00000380,01000600,0001.19,0000.29,0000.17,0000.34,0000.21,0000.07,-000.03,-000.13,-000.00,22.3,00.0,0624.3,30.8
2020-01-19T02:46:00Z,00000380,01000600,0000.73,0000.16,0000.24,0000.64,0000.36,0000.03,0000.35,0000.21,0000.13,22.3,00.0,0624.3,30.8
2020-01-19T02:47:00Z,00000380,01000600,-000.10,0000.75,0000.23,0000.54,0000.84,0000.36,0000.05,0000.15,0000.01,22.3,00.0,0624.3,30.8
2020-01-19T02:48:00Z,00000380,01000600,0000.03,0000.12,0000.35,0000.34,0000.43,0000.57,0000.03,-000.08,0000.01,22.3,00.0,0624.2,30.8
2020-01-19T02:49:00Z,00000380,01000600,0001.92,0000.08,0000.15,0000.77,0000.85,0000.46,0000.20,0000.17,0000.14,22.3,00.0,0624.2,30.8
2020-01-19T02:50:00Z,00000380,01000600,0001.68,0000.22,-000.12,-000.15,-000.03,-000.33,-000.06,0000.12,0000.03,22.3,00.0,0624.2,30.8
2020-01-19T02:51:00Z,00000380,01000600,0000.27,0000.21,-000.43,0000.90,0000.17,-000.17,-000.03,-000.04,0000.06,22.4,00.0,0624.2,30.8
2020-01-19T02:52:00Z,00000380,01000600,0001.84,-000.69,-000.24,0000.50,0000.23,-000.13,0000.11,0000.25,0000.06,22.4,00.0,0624.1,30.8
2020-01-19T02:53:00Z,00000380,01000600,0001.20,-000.05,0000.11,0001.30,0000.68,-000.17,0000.10,-000.01,0000.07,22.4,00.0,0624.1,30.9
2020-01-19T02:54:00Z,00000380,01000600,0001.04,-000.06,-000.28,0000.23,0000.28,0000.19,0000.02,0000.17,-000.08,22.3,00.0,0624.1,30.9
2020-01-19T02:55:00Z,00000380,01000600,0000.54,0000.43,-000.00,-000.44,0000.03,-000.49,-000.01,-000.20,0000.04,22.3,00.0,0624.1,30.9
2020-01-19T02:56:00Z,00000380,01000600,0000.57,-000.51,0001.01,0000.51,0000.05,0000.36,0000.02,0000.15,0000.00,22.3,00.0,0624.1,30.9
2020-01-19T02:57:00Z,00000380,41000600,,,,,,,,,,22.4,00.0,0624.1,30.9
2020-01-19T02:58:00Z,00000380,61000600,,,,,,,,,,22.5,00.0,0623.1,30.9
2020-01-19T02:59:00Z,00000380,21000600,,,,,,,,,,22.6,00.0,0623.0,30.9
2020-01-19T03:00:00Z,00000380,21000600,,,,,,,,,,22.6,00.0,0623.0,30.8
2020-01-19T03:01:00Z,00000380,21000600,,,,,,,,,,22.6,00.0,0623.0,30.8
2020-01-19T03:02:00Z,00000380,21000600,,,,,,,,,,22.6,00.0,0623.0,30.8
2020-01-19T03:03:00Z,00000380,61000600,,,,,,,,,,22.6,00.0,0623.0,30.8
2020-01-19T03:04:00Z,00000380,41000600,-000.82,0000.16,0000.37,-000.69,-000.34,-000.32,0000.01,0000.30,0000.08,22.5,00.0,0623.9,30.8
2020-01-19T03:05:00Z,00000380,01000600,0002.24,0000.62,0000.28,-000.93,0000.24,0000.48,-000.12,-000.42,-000.17,22.4,00.0,0624.0,30.9
2020-01-19T03:06:00Z,00000380,01000600,0000.14,0000.21,0000.32,-000.73,0000.17,0000.08,0000.10,0000.27,0000.03,22.4,00.0,0623.9,30.8
2020-01-19T03:07:00Z,00000380,01000600,0001.07,0000.33,0000.40,-000.05,0000.29,0000.13,0000.05,0000.14,0000.06,22.4,00.0,0623.9,30.9
2020-01-19T03:08:00Z,00000380,01000600,0000.38,0000.62,0000.07,-000.11,0000.23,0000.26,0000.14,0000.06,0000.10,22.4,00.0,0623.9,30.9
2020-01-19T03:09:00Z,00000380,01000600,0000.41,-000.07,0000.19,0000.47,0000.02,0000.12,-000.05,0000.00,-000.02,22.4,00.0,0623.8,30.9
2020-01-19T03:10:00Z,00000380,01000600,-000.96,0000.51,-000.30,-000.41,0000.33,-000.05,-000.08,-000.19,-000.06,22.4,00.0,0623.8,30.9